Find Qianfan 05-09

NORAD ID: 63167 Int'l Des: 2025-046 Owner: YUANX Country: CN Constellation: spacesail operational
LEOCIRCULARPOLAR

Current View

Loading 3D Globe...

About Qianfan 05-09

Description loading...

Upcoming Passes

Passes for default location (London). Set your location on the main map for personalized predictions.

Altitude History

Loading altitude history...

Two-Line Element Set

1 63167U 25046J 26146.28132028 .00000001 00000-0 -17812-4 0 9990
2 63167 88.9689 302.8160 0014935 13.9682 346.1880 13.51013351 69709
Epoch: May 26, 2026 • Age: 11 hours

Current Status

Altitude 1074.2 km
Velocity 7.32 km/s
Sub-Earth Point 68.33°N, 154.76°E
Launch Date Mar 11, 2025
Age 1.2 years
Type internet

Technical Details

Classification Payload
Mass 267.00 kg
Dry Mass 267.00 kg
Total Mass 267.00 kg
Length 0.30 m
Diameter 3.00 m
Span 10.00 m
Shape Box+pan
Manufacturer GESIH
Bus Type Qianfan
Phase Status In Orbit
Owner/State YUANX/CN

Most Searched